Back to catalog

STARLINK-5852

AliveCommunicationsVLEO
NORAD 55933·PAYLOAD·🇺🇸 United States

Launched Mar 17, 2023 from Vandenberg Space Force Base

Loading…

Next Passes (next 24 hours)

TLE

FreshSource: CelesTrak SupGP

Epoch: Sep 14, 2026, 21:19 UTC

1 55933C 23037V   26257.88868056  .00382570  00000+0  30961-1 0  2572
2 55933  70.0006 167.5122 0003127 268.9934 251.4674 14.99483231    12

Track STARLINK-5852 in real time with AllMySat

Download on the App Store